DLH8VV EDDM-EDDK

Flight info

Callsign DLH8VV
Flight time 0h 46m
Altitude 24000
Route GIVMI6S GIVMI Y101 ERNAS T161 GOLMO DCT AKANU L603 RATIM DCT ASKIK T840 GULKO GULKO1C
Aircraft A321/M-SDE2E3FGIJ1LORWXYZ/HB1

Departure

Time 2026-05-06 18:04
Airport Munich Airport (EDDM)

Arrival

Time 2026-05-06 18:50
Airport Cologne Bonn Airport (EDDK)
Time Latitude Longitude Altitude Speed Heading
2026-05-06 17:36 48.35693 11.79691 1486 ft 0 kts 83°
2026-05-06 17:54 48.35692 11.79675 1477 ft 4 kts 83°
2026-05-06 17:54 48.35689 11.79635 1478 ft 4 kts 83°
2026-05-06 17:54 48.35686 11.79603 1485 ft 4 kts 79°
2026-05-06 17:55 48.35677 11.79567 1485 ft 4 kts 44°
2026-05-06 17:55 48.35657 11.79555 1478 ft 3 kts 353°
2026-05-06 17:55 48.35637 11.79558 1485 ft 0 kts 353°
2026-05-06 17:57 48.35641 11.79558 1481 ft 2 kts 353°
2026-05-06 17:57 48.35673 11.79552 1485 ft 7 kts 353°
2026-05-06 17:58 48.35737 11.79541 1485 ft 11 kts 353°
2026-05-06 17:58 48.35831 11.79525 1485 ft 16 kts 354°
2026-05-06 17:58 48.35941 11.79507 1483 ft 15 kts 353°
2026-05-06 17:58 48.36043 11.79489 1485 ft 15 kts 353°
2026-05-06 17:59 48.36105 11.79477 1482 ft 10 kts 353°
2026-05-06 17:59 48.36130 11.79472 1485 ft 0 kts 352°
2026-05-06 17:59 48.36136 11.79471 1475 ft 2 kts 352°
2026-05-06 18:00 48.36181 11.79472 1479 ft 8 kts 14°
2026-05-06 18:00 48.36214 11.79511 1481 ft 10 kts 60°
2026-05-06 18:00 48.36226 11.79627 1485 ft 13 kts 82°
2026-05-06 18:00 48.36239 11.79785 1485 ft 17 kts 84°
2026-05-06 18:01 48.36254 11.79977 1476 ft 20 kts 83°
2026-05-06 18:01 48.36272 11.80195 1478 ft 22 kts 83°
2026-05-06 18:01 48.36286 11.80404 1485 ft 18 kts 85°
2026-05-06 18:01 48.36346 11.80510 1483 ft 13 kts 345°
2026-05-06 18:02 48.36384 11.80421 1485 ft 12 kts 294°
2026-05-06 18:02 48.36419 11.80299 1485 ft 14 kts 292°
2026-05-06 18:02 48.36458 11.80161 1480 ft 15 kts 293°
2026-05-06 18:02 48.36502 11.80008 1482 ft 17 kts 293°
2026-05-06 18:03 48.36514 11.79854 1483 ft 16 kts 262°
2026-05-06 18:03 48.36483 11.79465 1485 ft 73 kts 263°
2026-05-06 18:03 48.36398 11.78345 1480 ft 139 kts 263°
2026-05-06 18:03 48.36263 11.76780 2011 ft 148 kts 262°
2026-05-06 18:04 48.36143 11.75230 2757 ft 150 kts 263°
2026-05-06 18:04 48.36032 11.73605 3152 ft 166 kts 264°
2026-05-06 18:04 48.35894 11.71750 3425 ft 189 kts 263°
2026-05-06 18:04 48.35731 11.69673 3654 ft 211 kts 263°
2026-05-06 18:05 48.35902 11.67384 3779 ft 235 kts 294°
2026-05-06 18:05 48.36790 11.65193 3928 ft 263 kts 303°
2026-05-06 18:05 48.37795 11.62838 4654 ft 266 kts 302°
2026-05-06 18:05 48.38803 11.60436 5355 ft 274 kts 302°
2026-05-06 18:06 48.39807 11.57976 6044 ft 280 kts 301°
2026-05-06 18:06 48.40822 11.55470 6201 ft 278 kts 301°
2026-05-06 18:06 48.41832 11.52979 6432 ft 278 kts 301°
2026-05-06 18:06 48.42847 11.50494 6665 ft 279 kts 301°
2026-05-06 18:07 48.43851 11.48021 7355 ft 279 kts 300°
2026-05-06 18:07 48.44975 11.45639 8186 ft 280 kts 311°
2026-05-06 18:07 48.46461 11.43737 8907 ft 286 kts 326°
2026-05-06 18:07 48.48293 11.42474 9555 ft 293 kts 343°
2026-05-06 18:08 48.50312 11.41898 10234 ft 299 kts 349°
2026-05-06 18:08 48.52441 11.41354 10413 ft 322 kts 348°
2026-05-06 18:08 48.54713 11.40742 10656 ft 339 kts 348°
2026-05-06 18:08 48.57035 11.40104 11220 ft 345 kts 348°
2026-05-06 18:09 48.59411 11.39445 11835 ft 349 kts 348°
2026-05-06 18:09 48.61814 11.38782 12450 ft 353 kts 348°
2026-05-06 18:09 48.64250 11.38111 13069 ft 357 kts 348°
2026-05-06 18:09 48.66713 11.37431 13683 ft 360 kts 348°
2026-05-06 18:10 48.69167 11.36554 14277 ft 362 kts 340°
2026-05-06 18:10 48.71454 11.35047 14847 ft 364 kts 329°
2026-05-06 18:10 48.73587 11.32968 15430 ft 365 kts 323°
2026-05-06 18:10 48.75441 11.30362 16005 ft 364 kts 307°
2026-05-06 18:11 48.77001 11.27311 16579 ft 366 kts 306°
2026-05-06 18:11 48.78554 11.24234 17132 ft 369 kts 305°
2026-05-06 18:11 48.80115 11.21125 17667 ft 372 kts 305°
2026-05-06 18:11 48.81685 11.17989 18183 ft 375 kts 305°
2026-05-06 18:12 48.83291 11.14859 18689 ft 377 kts 306°
2026-05-06 18:12 48.84944 11.11737 19188 ft 380 kts 307°
2026-05-06 18:12 48.86623 11.08618 19671 ft 383 kts 307°
2026-05-06 18:12 48.88323 11.05463 20154 ft 386 kts 307°
2026-05-06 18:13 48.90002 11.02328 20619 ft 389 kts 307°
2026-05-06 18:13 48.91717 10.99108 21063 ft 391 kts 307°
2026-05-06 18:13 48.93432 10.95872 21513 ft 394 kts 307°
2026-05-06 18:13 48.95160 10.92596 21954 ft 397 kts 307°
2026-05-06 18:14 48.96871 10.89345 22373 ft 399 kts 307°
2026-05-06 18:14 48.98613 10.86034 22785 ft 402 kts 307°
2026-05-06 18:14 49.00367 10.82702 23186 ft 404 kts 307°
2026-05-06 18:14 49.02133 10.79342 23456 ft 405 kts 307°
2026-05-06 18:15 49.03898 10.75977 23700 ft 407 kts 306°
2026-05-06 18:15 49.05663 10.72610 23800 ft 404 kts 306°
2026-05-06 18:15 49.07393 10.69309 23823 ft 393 kts 306°
2026-05-06 18:15 49.09096 10.66061 23822 ft 391 kts 306°
2026-05-06 18:16 49.10790 10.62823 23823 ft 390 kts 306°
2026-05-06 18:16 49.12480 10.59583 23815 ft 390 kts 306°
2026-05-06 18:16 49.14162 10.56348 23810 ft 389 kts 306°
2026-05-06 18:16 49.15851 10.53104 23809 ft 390 kts 306°
2026-05-06 18:17 49.17524 10.49913 23814 ft 390 kts 307°
2026-05-06 18:17 49.19223 10.46684 23818 ft 389 kts 307°
2026-05-06 18:17 49.20917 10.43458 23815 ft 390 kts 307°
2026-05-06 18:17 49.22615 10.40216 23815 ft 390 kts 307°
2026-05-06 18:18 49.24316 10.36972 23816 ft 390 kts 307°
2026-05-06 18:18 49.26028 10.33744 23814 ft 390 kts 307°
2026-05-06 18:18 49.27750 10.30529 23816 ft 390 kts 307°
2026-05-06 18:18 49.29459 10.27355 23815 ft 390 kts 307°
2026-05-06 18:19 49.31116 10.24066 23819 ft 389 kts 304°
2026-05-06 18:19 49.32680 10.20676 23821 ft 389 kts 302°
2026-05-06 18:19 49.34189 10.17236 23819 ft 388 kts 301°
2026-05-06 18:19 49.35683 10.13767 23817 ft 388 kts 301°
2026-05-06 18:20 49.37175 10.10306 23820 ft 388 kts 302°
2026-05-06 18:20 49.38660 10.06899 23818 ft 388 kts 302°
2026-05-06 18:20 49.40178 10.03463 23815 ft 388 kts 302°
2026-05-06 18:20 49.41710 10.00024 23815 ft 389 kts 302°
2026-05-06 18:21 49.43245 9.96584 23816 ft 389 kts 302°
2026-05-06 18:21 49.44754 9.93195 23815 ft 389 kts 302°
2026-05-06 18:21 49.46281 9.89764 23819 ft 389 kts 302°
2026-05-06 18:21 49.47811 9.86324 23820 ft 389 kts 302°
2026-05-06 18:22 49.49340 9.82882 23818 ft 389 kts 302°
2026-05-06 18:22 49.50867 9.79433 23819 ft 389 kts 302°
2026-05-06 18:22 49.52392 9.75977 23818 ft 389 kts 302°
2026-05-06 18:22 49.53890 9.72579 23819 ft 389 kts 302°
2026-05-06 18:23 49.55416 9.69116 23820 ft 389 kts 302°
2026-05-06 18:23 49.56937 9.65670 23820 ft 389 kts 302°
2026-05-06 18:23 49.58460 9.62215 23825 ft 389 kts 302°
2026-05-06 18:23 49.59977 9.58755 23825 ft 389 kts 302°
2026-05-06 18:24 49.61492 9.55291 23821 ft 389 kts 302°
2026-05-06 18:24 49.63008 9.51819 23821 ft 389 kts 302°
2026-05-06 18:24 49.64520 9.48344 23825 ft 389 kts 302°
2026-05-06 18:24 49.66026 9.44884 23821 ft 389 kts 302°
2026-05-06 18:25 49.67514 9.41473 23815 ft 388 kts 302°
2026-05-06 18:25 49.69025 9.38002 23803 ft 390 kts 302°
2026-05-06 18:25 49.70539 9.34520 23807 ft 390 kts 302°
2026-05-06 18:25 49.72056 9.31029 23817 ft 390 kts 302°
2026-05-06 18:26 49.73567 9.27549 23819 ft 390 kts 302°
2026-05-06 18:26 49.75077 9.24064 23823 ft 389 kts 302°
2026-05-06 18:26 49.76583 9.20587 23829 ft 389 kts 302°
2026-05-06 18:26 49.78074 9.17138 23830 ft 389 kts 302°
2026-05-06 18:27 49.79577 9.13654 23831 ft 389 kts 302°
2026-05-06 18:27 49.81085 9.10160 23831 ft 388 kts 302°
2026-05-06 18:27 49.82588 9.06670 23833 ft 388 kts 302°
2026-05-06 18:27 49.84071 9.03216 23833 ft 388 kts 302°
2026-05-06 18:28 49.85581 8.99697 23832 ft 388 kts 302°
2026-05-06 18:28 49.87075 8.96216 23834 ft 388 kts 302°
2026-05-06 18:28 49.88569 8.92725 23837 ft 389 kts 302°
2026-05-06 18:28 49.90065 8.89222 23841 ft 389 kts 302°
2026-05-06 18:29 49.91549 8.85735 23837 ft 389 kts 302°
2026-05-06 18:29 49.93024 8.82268 23840 ft 389 kts 302°
2026-05-06 18:29 49.94513 8.78775 23788 ft 386 kts 302°
2026-05-06 18:29 49.95996 8.75302 23528 ft 376 kts 302°
2026-05-06 18:30 49.97419 8.71957 23285 ft 367 kts 302°
2026-05-06 18:30 49.98803 8.68703 23038 ft 363 kts 301°
2026-05-06 18:30 50.00188 8.65426 22786 ft 361 kts 301°
2026-05-06 18:30 50.01571 8.62149 22533 ft 359 kts 301°
2026-05-06 18:31 50.02951 8.58906 22282 ft 358 kts 304°
2026-05-06 18:31 50.04546 8.55988 22034 ft 358 kts 314°
2026-05-06 18:31 50.06471 8.53532 21784 ft 358 kts 325°
2026-05-06 18:31 50.08626 8.51657 21535 ft 358 kts 335°
2026-05-06 18:32 50.10967 8.50314 21285 ft 357 kts 340°
2026-05-06 18:32 50.13320 8.49060 21033 ft 356 kts 339°
2026-05-06 18:32 50.15657 8.47803 20783 ft 355 kts 340°
2026-05-06 18:32 50.17989 8.46543 20533 ft 353 kts 339°
2026-05-06 18:33 50.20292 8.45292 20284 ft 352 kts 339°
2026-05-06 18:33 50.22605 8.44032 20034 ft 350 kts 340°
2026-05-06 18:33 50.24901 8.42786 19782 ft 349 kts 340°
2026-05-06 18:33 50.27192 8.41537 19530 ft 347 kts 339°
2026-05-06 18:34 50.29416 8.40105 19280 ft 344 kts 330°
2026-05-06 18:34 50.31451 8.38153 19029 ft 342 kts 326°
2026-05-06 18:34 50.33434 8.36170 18782 ft 341 kts 326°
2026-05-06 18:34 50.35434 8.34175 18528 ft 339 kts 326°
2026-05-06 18:35 50.37418 8.32197 18278 ft 338 kts 326°
2026-05-06 18:35 50.39409 8.30215 18012 ft 336 kts 326°
2026-05-06 18:35 50.41380 8.28252 17779 ft 335 kts 326°
2026-05-06 18:35 50.43347 8.26291 17531 ft 331 kts 326°
2026-05-06 18:36 50.45276 8.24363 17186 ft 326 kts 326°
2026-05-06 18:36 50.47156 8.22485 16809 ft 321 kts 326°
2026-05-06 18:36 50.49032 8.20606 16422 ft 318 kts 326°
2026-05-06 18:36 50.50884 8.18745 16043 ft 314 kts 326°
2026-05-06 18:37 50.52723 8.16898 15657 ft 313 kts 326°
2026-05-06 18:37 50.53966 8.15650 15390 ft 314 kts 326°
2026-05-06 18:37 50.56406 8.13199 14887 ft 312 kts 326°
2026-05-06 18:37 50.58230 8.11357 14501 ft 310 kts 326°
2026-05-06 18:38 50.60018 8.09545 14121 ft 309 kts 326°
2026-05-06 18:38 50.61828 8.07711 13731 ft 307 kts 326°
2026-05-06 18:38 50.63617 8.05898 13343 ft 305 kts 326°
2026-05-06 18:38 50.65401 8.04075 12890 ft 304 kts 323°
2026-05-06 18:39 50.66870 8.01687 12184 ft 300 kts 301°
2026-05-06 18:39 50.67653 7.98722 11480 ft 290 kts 279°
2026-05-06 18:39 50.67850 7.95632 10676 ft 287 kts 274°
2026-05-06 18:40 50.68133 7.89338 9868 ft 286 kts 274°
2026-05-06 18:40 50.68276 7.86217 9836 ft 286 kts 274°
2026-05-06 18:40 50.68419 7.83086 9838 ft 287 kts 274°
2026-05-06 18:40 50.68563 7.79943 9840 ft 287 kts 274°
2026-05-06 18:41 50.68705 7.76806 9837 ft 287 kts 274°
2026-05-06 18:41 50.68848 7.73688 9501 ft 284 kts 274°
2026-05-06 18:41 50.68991 7.70583 9092 ft 283 kts 274°
2026-05-06 18:41 50.69129 7.67505 8748 ft 279 kts 274°
2026-05-06 18:42 50.69260 7.64557 8620 ft 266 kts 274°
2026-05-06 18:42 50.69383 7.61752 8324 ft 249 kts 274°
2026-05-06 18:42 50.69501 7.59065 7783 ft 242 kts 274°
2026-05-06 18:42 50.69620 7.56433 7106 ft 239 kts 274°
2026-05-06 18:43 50.69737 7.53821 6437 ft 238 kts 274°
2026-05-06 18:43 50.69849 7.51225 5779 ft 235 kts 274°
2026-05-06 18:43 50.69958 7.48657 5127 ft 233 kts 274°
2026-05-06 18:43 50.70067 7.46110 4479 ft 231 kts 275°
2026-05-06 18:44 50.70171 7.43644 4192 ft 218 kts 274°
2026-05-06 18:44 50.70269 7.41284 3939 ft 213 kts 275°
2026-05-06 18:44 50.70521 7.39058 3688 ft 206 kts 292°
2026-05-06 18:44 50.71239 7.37179 3464 ft 195 kts 312°
2026-05-06 18:45 50.72207 7.35738 3214 ft 188 kts 318°
2026-05-06 18:45 50.73167 7.34364 3035 ft 185 kts 318°
2026-05-06 18:45 50.74122 7.32995 2997 ft 185 kts 318°
2026-05-06 18:45 50.74754 7.32087 2993 ft 185 kts 318°
2026-05-06 18:46 50.75691 7.30741 2863 ft 175 kts 318°
2026-05-06 18:46 50.76567 7.29481 2664 ft 167 kts 318°
2026-05-06 18:46 50.77683 7.27874 2377 ft 156 kts 318°
2026-05-06 18:46 50.78457 7.26760 2179 ft 146 kts 318°
2026-05-06 18:47 50.79197 7.25694 1990 ft 142 kts 318°
2026-05-06 18:47 50.79686 7.24989 1860 ft 142 kts 318°
2026-05-06 18:47 50.80412 7.23942 1683 ft 141 kts 318°
2026-05-06 18:47 50.81135 7.22901 1487 ft 140 kts 317°
2026-05-06 18:48 50.81854 7.21864 1307 ft 139 kts 317°
2026-05-06 18:48 50.82569 7.20843 1117 ft 137 kts 318°
2026-05-06 18:48 50.83282 7.19793 934 ft 142 kts 317°
2026-05-06 18:48 50.84010 7.18745 723 ft 140 kts 317°
2026-05-06 18:49 50.84724 7.17714 522 ft 137 kts 318°
2026-05-06 18:49 50.85425 7.16706 366 ft 136 kts 318°
2026-05-06 18:49 50.86096 7.15748 297 ft 118 kts 318°
2026-05-06 18:49 50.86587 7.15024 277 ft 72 kts 316°
2026-05-06 18:50 50.86839 7.14654 264 ft 37 kts 317°
2026-05-06 18:50 50.87023 7.14384 255 ft 37 kts 317°
2026-05-06 18:50 50.87188 7.14150 247 ft 24 kts 318°
2026-05-06 18:50 50.87285 7.13926 242 ft 25 kts 293°
2026-05-06 18:51 50.87320 7.13699 238 ft 19 kts 277°
2026-05-06 18:51 50.87354 7.13471 233 ft 23 kts 298°
2026-05-06 18:51 50.87453 7.13310 234 ft 17 kts 318°
2026-05-06 18:51 50.87545 7.13179 235 ft 19 kts 317°
2026-05-06 18:52 50.87644 7.13035 233 ft 18 kts 317°
2026-05-06 18:52 50.87709 7.12942 233 ft 13 kts 317°
2026-05-06 18:52 50.87757 7.12870 234 ft 1 kts 316°
2026-05-06 18:52 50.87757 7.12869 232 ft 0 kts 316°
2026-05-06 18:54 50.87772 7.12845 232 ft 9 kts 316°
2026-05-06 18:54 50.87792 7.12706 233 ft 17 kts 279°
2026-05-06 18:54 50.87874 7.12609 232 ft 14 kts 11°
2026-05-06 18:55 50.87949 7.12560 235 ft 9 kts 302°
2026-05-06 18:55 50.87943 7.12499 232 ft 4 kts 251°
2026-05-06 18:55 50.87938 7.12473 232 ft 0 kts 254°
2026-05-06 18:55 50.87937 7.12465 232 ft 1 kts 257°